{"data":{"norad_id":66635,"epoch":"2026-09-20T04:17:50.802144Z","epoch_age_seconds":114626,"freshness":"FRESH","line1":"1 66635U 25271U   26263.17906021  .00014922  00000+0  45187-3 0  9993","line2":"2 66635  53.1598 315.1539 0001051  88.2698 271.8425 15.34402262 47362","mean_motion":15.34402262,"eccentricity":0.0001051,"inclination_deg":53.1598,"raan_deg":315.1539,"arg_perigee_deg":88.2698,"mean_anomaly_deg":271.8425,"bstar":0.00045187,"rev_number":4736,"period_min":93.847619731937,"perigee_km":461.97754547203,"apogee_km":463.41548867731,"semimajor_km":6840.8335170747,"source":"CELESTRAK","updated_at":"2026-09-21T09:00:35.985799Z"}}